Location: Table Mountain
(47.2500°N, 120.5778°W)
Time: 02:26:10
(UTC-07:00)

VELOX 1 - Visible Passes

Search period start: 25 March 2019 00:00
Search period end: 04 April 2019 00:00
Orbit: 628 x 645 km, 98.2° (Epoch: 25 March)

Date Brightness Start Highest point End Pass type
(mag) Time Alt. Az. Time Alt. Az. Time Alt. Az.
27 Mar ? 00:55:14 10° NNE 00:55:14 10° NNE 00:55:15 10° NNE visible
28 Mar ? 01:17:50 12° N 01:17:50 12° N 01:18:08 10° N visible
29 Mar ? 01:40:24 12° N 01:40:24 12° N 01:40:50 10° N visible
30 Mar ? 02:02:59 12° NNW 02:02:59 12° NNW 02:03:21 10° NNW visible
31 Mar ? 00:48:04 11° NNE 00:48:04 11° NNE 00:48:24 10° NNE visible
31 Mar ? 02:25:34 11° NNW 02:25:34 11° NNW 02:25:44 10° NNW visible
01 Apr ? 01:10:39 14° NNE 01:10:39 14° NNE 01:11:23 10° N visible
02 Apr ? 01:33:14 16° N 01:33:14 16° N 01:34:07 10° N visible
03 Apr ? 01:55:48 16° N 01:55:48 16° N 01:56:42 10° N visible
